Weather in Ninorovo

Russia / Yaroslavl Oblast     57°38′29″N   38°16′36″E
temp.,
°C
wind,
m/s
gust,
m/s
humid.,
%
clouds,
%
prec.,
mm/h
press.,
hPa
HPBL,
m
21 june, mon
mon2100:00+19sw34790 0.0 101948
03:00+18wsw33891 0.0 102043
06:00+20sw35863 0.0 1020138
09:00+25wsw34705 0.0 1020477
12:00+28sw446022 0.0 10201238
15:00+29wsw345586 0.0 10201464
18:00+29sw236442 0.0 1019966
21:00+24ssw347695 0.0 102048
22 june, tue
tue2200:00+21ssw3671100 0.0 102086
03:00+18sw228495 0.2 102122
06:00+20ssw2384100 0.0 1021109
09:00+25s34678 0.0 1021454
12:00+28ssw33510 0.0 10211116
15:00+29sw34460 0.0 10201217
18:00+29sw14582 0.0 1019832
21:00+24sse33715 0.0 101926
23 june, wed
wed2300:00+21ssw33795 0.0 102031
03:00+20sw33825 0.0 102140
06:00+21sw3581100 0.0 1021126
09:00+25sw3468100 0.0 1021342
12:00+29sw3459100 0.0 1021775
15:00+30sw345299 0.0 10211186
18:00+30s24575 0.0 1020393
21:00+24ssw46735 0.0 101980
24 june, thu
thu2400:00+22wsw337386 0.0 102036
03:00+20sw347760 0.0 102061
06:00+22sw378012 0.0 1020161
09:00+27sw466458 0.0 1020384
12:00+30sw455575 0.0 1019937
15:00+31sw344828 0.0 10181536
18:00+31s35565 0.0 1017359
21:00+24ssw4106884 0.0 1016161
25 june, fri
fri2500:00+22w3875100 0.0 1017154
03:00+19ene1291100 0.0 101615
06:00+21nw248329 0.0 1016166
09:00+25wnw45638 0.0 1016628
12:00+28w355640 0.0 10161117
15:00+29w455311 0.0 10151566
18:00+29w13565 0.0 10131121
21:00+21ne2388100 1.4 101451